Showing default

GOMX 1, 39430

Orbit data source: Space-Track

GOMX 1, 39430 is a payload satellite owned by GOMSpace (DK) in SSO that was launched on Thu, 21 Nov 2013 UTC via a DNEPR launch vehicle from the Orenburg, Russia (OREN). Payload-class satellites include a variety of spacecraft equipped with specific instruments for various scientific and technological missions. These include communications satellites like Starlink; space stations such as the ISS; scientific satellites like the Hubble; Earth observation satellites from companies like Planet Labs, Umbra, and HawkEye 360; GPS; miniature CubeSats for education and research; and military/defense satellites.

Loading next visibility...
Identifier
39430, 2013-066Q
Orbit
SSO
Country
Flag of DKDK / DEN
Related business
Manufacturer
GOMSP/AAU
Mission
Operational Commercial Communications
Bus & Motor
CUBESAT 2U, Unknown motor
Mass
3 kg wet, 3 kg dry
Launch date (UTC)
2013-11-21 (12 years ago)
Launch vehicle
DNEPR
Launch site
Orenburg, Russia (OREN)
Object type
Payload
Rocket body
Debris
Shape & HBR
Box, 0.1 m
Radar Cross Section
0.075 m², Small (<0.1 m²)

Expand to show TLE details & history
Last TLE update: 7 hours ago

TLE from 7 hours ago
0 GOMX 1
1 39430U 13066Q   25300.56611438  .00002626  00000-0  40596-3 0  9992
2 39430  97.6646 150.5790 0132394 103.9081 257.6892 14.68286269635768
Epoch: 2025-10-27T13:35Z
TLE epoch observation values (Epoch: 2025-10-27T13:35:12.282Z)
Latitude
-0.00002°
Longitude
-89.38829°
Altitude
690.622 km
Speed
7.5 km/s
True Right ascension
10h 02m 18s
True Declination
0° 00' 00"
Sunlit
Object was in daylight at epoch
Visualization orbit readout
Latitude
Unknown
Longitude
Unknown
Altitude
Unknown
Speed
Unknown
Apparent Right ascension
Unknown
Apparent Declination
Unknown
Sunlit
N/A
Visualization observer readout
Local Sidereal Time
15:39:45
Azimuth
Unknown
Elevation
Unknown
Doppler factor
Unknown
Orbital elements
Apogee altitude
756.818 km
Perigee altitude
570.361 km
Semi-major axis
7,041.727 km
Eccentricity
0.01324
Inclination
97.6646°
RAAN
150.579°
Arg. of periapsis
103.9081°
True anomaly
256.21234°
Mean anomaly
257.6892°
Eccentric anomaly
256.95023°
Mean motion
3.67303 °/min
Orbital period
98.01 mins
BSTAR
0.00040596
Loading maneuver chart data...
Computing Atmospheric mass density...
Loading historical data...
Loading historical data...
Loading historical data...
Loading historical data...
Loading historical data...
Loading historical data...
Loading historical data...

Documentation

Showing up to 5 results
|